| time (UTC) | temp C | wind direction | speed KPH | gust KPH | rain 1hr cm | rain 24hr cm | rain mn cm | humidity % | barometer mb |
| 20260507151548 | 12 | 0.0 | 0.0 | 0.00 | 0.08 | 0.03 | 62 | 1012.4 | |
| 20260507150048 | 11 | 0.0 | 0.0 | 0.00 | 0.08 | 0.03 | 66 | 1012.7 | |
| 20260507144545 | 11 | 0.0 | 0.0 | 0.00 | 0.18 | 0.03 | 67 | 1012.9 | |
| 20260507143057 | 11 | 0.0 | 0.0 | 0.00 | 0.18 | 0.03 | 67 | 1013.0 | |
| 20260507141552 | 11 | 0.0 | 0.0 | 0.00 | 0.18 | 0.03 | 66 | 1013.1 | |
| 20260507140043 | 11 | 0.0 | 0.0 | 0.00 | 0.18 | 0.03 | 64 | 1013.1 | |
| 20260507134543 | 11 | 0.0 | 0.0 | 0.00 | 0.46 | 0.03 | 63 | 1013.2 | |
| 20260507133101 | 11 | 0.0 | 0.0 | 0.00 | 0.46 | 0.03 | 66 | 1013.3 | |
| 20260507131551 | 11 | 0.0 | 0.0 | 0.00 | 0.46 | 0.03 | 68 | 1013.1 | |
| 20260507130104 | 11 | 0.0 | 0.0 | 0.00 | 0.46 | 0.03 | 70 | 1013.2 | |
| 20260507124547 | 11 | 0.0 | 0.0 | 0.00 | 0.51 | 0.03 | 69 | 1013.0 | |
| 20260507123042 | 11 | 0.0 | 0.0 | 0.00 | 0.51 | 0.03 | 72 | 1013.3 | |
| 20260507121604 | 11 | 0.0 | 0.0 | 0.00 | 0.51 | 0.03 | 73 | 1012.9 | |
| 20260507120057 | 11 | 0.0 | 0.0 | 0.00 | 0.51 | 0.03 | 76 | 1013.0 | |
| 20260507114626 | 11 | 0.0 | 0.0 | 0.00 | 0.51 | 0.03 | 78 | 1012.7 | |
| 20260507113045 | 11 | 0.0 | 0.0 | 0.00 | 0.51 | 0.03 | 74 | 1012.4 | |
| 20260507111547 | 12 | 0.0 | 0.0 | 0.00 | 0.51 | 0.03 | 62 | 1012.4 | |
| 20260507110046 | 12 | 0.0 | 0.0 | 0.00 | 0.51 | 0.03 | 46 | 1012.3 | |
| 20260507104548 | 12 | 0.0 | 0.0 | 0.00 | 0.51 | 0.03 | 47 | 1012.2 | |
| 20260507103045 | 12 | 0.0 | 0.0 | 0.00 | 0.51 | 0.03 | 48 | 1012.3 | |
| 20260507101547 | 12 | 0.0 | 0.0 | 0.00 | 0.51 | 0.03 | 45 | 1011.9 | |
| 20260507100048 | 12 | 0.0 | 0.0 | 0.00 | 0.51 | 0.03 | 48 | 1011.9 | |
| 20260507094544 | 12 | 0.0 | 0.0 | 0.00 | 0.51 | 0.03 | 49 | 1012.0 | |
| 20260507093050 | 12 | 0.0 | 0.0 | 0.00 | 0.51 | 0.03 | 50 | 1011.8 | |
| 20260507091550 | 12 | 0.0 | 0.0 | 0.00 | 0.51 | 0.03 | 52 | 1011.6 | |
| 20260507090048 | 12 | 0.0 | 0.0 | 0.00 | 0.51 | 0.03 | 52 | 1011.8 | |
| 20260507084556 | 12 | 0.0 | 0.0 | 0.00 | 0.51 | 0.03 | 55 | 1011.5 | |
| 20260507083054 | 12 | 0.0 | 0.0 | 0.00 | 0.51 | 0.03 | 56 | 1011.6 | |
| 20260507081545 | 12 | 0.0 | 0.0 | 0.00 | 0.51 | 0.03 | 58 | 1011.3 | |
| 20260507080105 | 12 | 0.0 | 0.0 | 0.00 | 0.51 | 0.03 | 57 | 1010.9 | |
| 20260507074550 | 12 | 0.0 | 0.0 | 0.00 | 0.51 | 0.03 | 56 | 1010.9 | |
| 20260507073048 | 12 | 0.0 | 0.0 | 0.00 | 0.51 | 0.03 | 57 | 1010.5 | |
| 20260507071546 | 12 | 0.0 | 0.0 | 0.00 | 0.51 | 0.03 | 54 | 1010.8 | |
| 20260507070045 | 12 | 0.0 | 0.0 | 0.00 | 0.51 | 0.03 | 52 | 1010.7 | |
| 20260507064544 | 12 | 0.0 | 0.0 | 0.00 | 0.51 | 0.03 | 46 | 1010.6 | |
| 20260507063045 | 12 | 0.0 | 0.0 | 0.00 | 0.51 | 0.03 | 42 | 1010.8 | |
| 20260507061546 | 12 | 0.0 | 0.0 | 0.00 | 0.51 | 0.03 | 44 | 1010.3 | |
| 20260507060043 | 13 | 0.0 | 0.0 | 0.00 | 0.51 | 0.03 | 52 | 1010.6 | |
| 20260507054541 | 13 | 0.0 | 0.0 | 0.00 | 0.51 | 0.03 | 58 | 1010.6 | |
| 20260507053046 | 13 | 0.0 | 0.0 | 0.03 | 0.51 | 0.03 | 64 | 1011.0 | |
| 20260507051545 | 13 | 0.0 | 0.0 | 0.03 | 0.51 | 0.03 | 67 | 1010.6 | |
| 20260507050046 | 14 | 0.0 | 0.0 | 0.03 | 0.51 | 0.03 | 69 | 1011.1 | |
| 20260507044549 | 15 | 0.0 | 0.0 | 0.03 | 0.51 | 0.03 | 76 | 1011.1 | |
| 20260507043047 | 15 | 0.0 | 0.0 | 0.00 | 0.48 | 0.00 | 78 | 1010.7 | |
| 20260507041551 | 15 | 0.0 | 0.0 | 0.00 | 0.48 | 0.00 | 78 | 1011.0 | |
| 20260507040053 | 16 | 0.0 | 0.0 | 0.00 | 0.48 | 0.00 | 77 | 1010.7 | |
| 20260507034551 | 16 | 0.0 | 0.0 | 0.00 | 0.48 | 0.48 | 77 | 1010.6 | |
| 20260507033052 | 16 | 0.0 | 0.0 | 0.00 | 0.48 | 0.48 | 77 | 1010.4 | |
| 20260507031548 | 16 | 0.0 | 0.0 | 0.00 | 0.48 | 0.48 | 77 | 1010.4 | |
| 20260507030047 | 16 | 0.0 | 0.0 | 0.00 | 0.48 | 0.48 | 77 | 1009.8 | |
| 20260507024548 | 17 | 0.0 | 0.0 | 0.00 | 0.48 | 0.48 | 78 | 1010.1 | |
| 20260507023049 | 17 | 0.0 | 0.0 | 0.00 | 0.48 | 0.48 | 77 | 1010.0 | |
| 20260507021547 | 17 | 0.0 | 0.0 | 0.00 | 0.48 | 0.48 | 76 | 1009.7 | |
| 20260507020106 | 18 | 0.0 | 0.0 | 0.00 | 0.48 | 0.48 | 70 | 1009.6 | |
| 20260507014553 | 18 | 0.0 | 0.0 | 0.00 | 0.48 | 0.48 | 62 | 1009.6 | |
| 20260507013054 | 18 | 0.0 | 0.0 | 0.00 | 0.48 | 0.48 | 51 | 1009.7 | |
| 20260507011546 | 18 | 0.0 | 0.0 | 0.00 | 0.48 | 0.48 | 50 | 1009.9 | |
| 20260507010048 | 18 | 0.0 | 0.0 | 0.00 | 0.48 | 0.48 | 57 | 1009.7 | |
| 20260507004553 | 18 | 0.0 | 0.0 | 0.00 | 0.48 | 0.48 | 58 | 1009.6 | |
| 20260507003048 | 18 | 0.0 | 0.0 | 0.00 | 0.48 | 0.48 | 63 | 1009.3 | |
| 20260507001551 | 18 | 0.0 | 0.0 | 0.00 | 0.48 | 0.48 | 67 | 1009.3 | |
| 20260507000051 | 18 | 0.0 | 0.0 | 0.00 | 0.48 | 0.48 | 69 | 1009.3 | |
| 20260506234550 | 19 | 0.0 | 0.0 | 0.00 | 0.48 | 0.48 | 68 | 1009.0 | |
| 20260506233101 | 19 | 0.0 | 0.0 | 0.00 | 0.48 | 0.48 | 71 | 1008.7 | |
| 20260506231554 | 19 | 0.0 | 0.0 | 0.00 | 0.48 | 0.48 | 73 | 1008.5 | |
| 20260506230049 | 19 | 0.0 | 0.0 | 0.00 | 0.48 | 0.48 | 74 | 1008.5 | |
| 20260506224543 | 19 | 0.0 | 0.0 | 0.00 | 0.48 | 0.48 | 75 | 1008.3 | |
| 20260506223045 | 20 | 0.0 | 0.0 | 0.00 | 0.48 | 0.48 | 75 | 1008.5 | |
| 20260506221548 | 20 | 0.0 | 0.0 | 0.00 | 0.48 | 0.48 | 76 | 1008.3 | |
| 20260506220046 | 20 | 0.0 | 0.0 | 0.00 | 0.48 | 0.48 | 76 | 1008.3 | |
| 20260506214545 | 20 | 0.0 | 0.0 | 0.00 | 0.48 | 0.48 | 76 | 1008.2 | |
| 20260506213058 | 20 | 0.0 | 0.0 | 0.00 | 0.48 | 0.48 | 76 | 1008.3 | |
| 20260506211548 | 20 | 0.0 | 0.0 | 0.00 | 0.48 | 0.48 | 75 | 1008.2 | |
| 20260506210048 | 20 | 0.0 | 0.0 | 0.00 | 0.48 | 0.48 | 75 | 1008.0 | |
| 20260506204549 | 20 | 0.0 | 0.0 | 0.00 | 0.48 | 0.48 | 75 | 1007.9 | |
| 20260506203045 | 20 | 0.0 | 0.0 | 0.00 | 0.48 | 0.48 | 74 | 1007.8 | |
| 20260506201545 | 19 | 0.0 | 0.0 | 0.00 | 0.48 | 0.48 | 75 | 1008.0 | |
| 20260506200043 | 19 | 0.0 | 0.0 | 0.00 | 0.48 | 0.48 | 72 | 1008.0 | |
| 20260506194547 | 19 | 0.0 | 0.0 | 0.00 | 0.48 | 0.48 | 72 | 1008.1 | |
| 20260506193049 | 19 | 0.0 | 0.0 | 0.00 | 0.48 | 0.48 | 69 | 1008.0 | |
| 20260506191550 | 18 | 0.0 | 0.0 | 0.00 | 0.48 | 0.48 | 64 | 1008.1 | |
| 20260506190046 | 18 | 0.0 | 0.0 | 0.00 | 0.48 | 0.48 | 40 | 1008.2 | |
| 20260506184551 | 18 | 0.0 | 0.0 | 0.00 | 0.48 | 0.48 | 42 | 1008.7 | |
| 20260506183056 | 17 | 0.0 | 0.0 | 0.00 | 0.48 | 0.48 | 38 | 1008.6 | |
| 20260506181612 | 17 | 0.0 | 0.0 | 0.00 | 0.48 | 0.48 | 39 | 1008.9 | |
| 20260506180048 | 17 | 0.0 | 0.0 | 0.00 | 0.48 | 0.48 | 18 | 1009.0 | |
| 20260506174549 | 17 | 0.0 | 0.0 | 0.00 | 0.48 | 0.48 | 8 | 1009.0 | |
| 20260506173056 | 16 | 0.0 | 0.0 | 0.00 | 0.48 | 0.48 | 9 | 1009.2 | |
| 20260506171551 | 16 | 0.0 | 0.0 | 0.00 | 0.48 | 0.48 | 3 | 1009.3 | |
| 20260506170047 | 16 | 0.0 | 0.0 | 0.00 | 0.48 | 0.48 | 100 | 1009.4 | |
| 20260506164554 | 16 | 0.0 | 0.0 | 0.00 | 0.48 | 0.48 | 100 | 1009.2 | |
| 20260506163050 | 16 | 0.0 | 0.0 | 0.00 | 0.48 | 0.48 | 100 | 1009.3 | |
| 20260506161548 | 16 | 0.0 | 0.0 | 0.03 | 0.48 | 0.48 | 100 | 1009.5 | |
| 20260506160053 | 16 | 0.0 | 0.0 | 0.05 | 0.48 | 0.48 | 100 | 1009.3 | |
| 20260506154546 | 16 | 0.0 | 0.0 | 0.08 | 0.48 | 0.48 | 100 | 1009.5 | |
| 20260506153107 | 15 | 0.0 | 0.0 | 0.08 | 0.48 | 0.48 | 100 | 1009.8 |